Time,TemperatureF,DewpointF,PressureIn,WindDirection,WindDirectionDegrees,WindSpeedMPH,WindSpeedGustMPH,Humidity,HourlyPrecipIn,Conditions,Clouds,dailyrainin,SoftwareType,DateUTC
2013-05-17 00:01:00,50.5,41.0,28.99,NW,315,2.0,5.0,69,0.00,,,0.00,Rainwise IP-100,2013-05-17 04:01:00,
2013-05-17 00:02:00,50.4,41.0,28.99,West,270,1.0,4.0,70,0.00,,,0.00,Rainwise IP-100,2013-05-17 04:02:00,
2013-05-17 00:04:00,50.5,41.0,28.99,WNW,292,1.0,4.0,69,0.00,,,0.00,Rainwise IP-100,2013-05-17 04:04:00,
2013-05-17 00:09:00,50.3,41.0,28.99,WNW,292,2.0,3.0,70,0.00,,,0.00,Rainwise IP-100,2013-05-17 04:09:00,
2013-05-17 00:14:00,49.9,41.0,28.99,NW,315,2.0,4.0,72,0.00,,,0.00,Rainwise IP-100,2013-05-17 04:14:00,
2013-05-17 00:15:00,49.9,41.0,28.99,WNW,292,2.0,4.0,71,0.00,,,0.00,Rainwise IP-100,2013-05-17 04:15:00,
2013-05-17 00:20:00,49.5,42.0,28.99,NW,315,2.0,4.0,74,0.00,,,0.00,Rainwise IP-100,2013-05-17 04:20:00,
2013-05-17 00:25:00,49.2,41.0,28.98,WNW,292,0.0,3.0,74,0.00,,,0.00,Rainwise IP-100,2013-05-17 04:25:00,
2013-05-17 00:30:00,48.9,41.0,28.98,North,360,2.0,2.0,75,0.00,,,0.00,Rainwise IP-100,2013-05-17 04:30:00,
2013-05-17 00:35:00,48.5,42.0,28.98,North,360,2.0,2.0,76,0.00,,,0.00,Rainwise IP-100,2013-05-17 04:35:00,
2013-05-17 00:40:00,48.1,42.0,28.98,North,360,1.0,2.0,78,0.00,,,0.00,Rainwise IP-100,2013-05-17 04:40:00,
2013-05-17 00:45:00,47.9,42.0,28.98,North,360,2.0,3.0,78,0.00,,,0.00,Rainwise IP-100,2013-05-17 04:45:00,
2013-05-17 00:51:00,47.9,42.0,28.98,NNE,22,1.0,3.0,78,0.00,,,0.00,Rainwise IP-100,2013-05-17 04:51:00,
2013-05-17 00:56:00,48.1,42.0,28.98,North,360,2.0,4.0,78,0.00,,,0.00,Rainwise IP-100,2013-05-17 04:56:00,
2013-05-17 01:01:00,47.9,42.0,28.98,North,360,1.0,3.0,79,0.00,,,0.00,Rainwise IP-100,2013-05-17 05:01:00,
2013-05-17 01:06:00,47.8,42.0,28.98,NNW,337,2.0,2.0,79,0.00,,,0.00,Rainwise IP-100,2013-05-17 05:06:00,
2013-05-17 01:11:00,47.7,41.0,28.98,North,360,2.0,4.0,80,0.00,,,0.00,Rainwise IP-100,2013-05-17 05:11:00,
2013-05-17 01:16:00,47.4,42.0,28.98,North,360,2.0,3.0,81,0.00,,,0.00,Rainwise IP-100,2013-05-17 05:16:00,
2013-05-17 01:21:00,47.0,41.0,28.99,North,360,1.0,2.0,82,0.00,,,0.00,Rainwise IP-100,2013-05-17 05:21:00,
2013-05-17 01:26:00,46.7,42.0,28.99,North,360,2.0,2.0,83,0.00,,,0.00,Rainwise IP-100,2013-05-17 05:26:00,
2013-05-17 01:31:00,46.5,42.0,28.99,North,360,0.0,2.0,83,0.00,,,0.00,Rainwise IP-100,2013-05-17 05:31:00,
2013-05-17 01:36:00,46.0,42.0,28.98,North,360,0.0,0.0,86,0.00,,,0.00,Rainwise IP-100,2013-05-17 05:36:00,
2013-05-17 01:41:00,45.9,42.0,28.98,North,360,0.0,0.0,86,0.00,,,0.00,Rainwise IP-100,2013-05-17 05:41:00,
2013-05-17 01:46:00,46.1,41.0,28.98,North,360,0.0,0.0,85,0.00,,,0.00,Rainwise IP-100,2013-05-17 05:46:00,
2013-05-17 01:52:00,46.2,41.0,28.98,NNW,337,1.0,3.0,85,0.00,,,0.00,Rainwise IP-100,2013-05-17 05:52:00,
2013-05-17 01:57:00,46.1,42.0,28.98,NNW,337,0.0,3.0,86,0.00,,,0.00,Rainwise IP-100,2013-05-17 05:57:00,
2013-05-17 02:02:00,45.8,42.0,28.98,NNW,337,1.0,2.0,86,0.00,,,0.00,Rainwise IP-100,2013-05-17 06:02:00,
2013-05-17 02:07:00,46.2,41.0,28.98,North,360,2.0,7.0,85,0.00,,,0.00,Rainwise IP-100,2013-05-17 06:07:00,
2013-05-17 02:12:00,46.3,41.0,28.99,North,360,2.0,6.0,85,0.00,,,0.00,Rainwise IP-100,2013-05-17 06:12:00,
2013-05-17 02:17:00,45.9,42.0,28.99,North,360,0.0,2.0,87,0.00,,,0.00,Rainwise IP-100,2013-05-17 06:17:00,
2013-05-17 02:22:00,45.6,42.0,28.99,North,360,0.0,0.0,87,0.00,,,0.00,Rainwise IP-100,2013-05-17 06:22:00,
2013-05-17 02:27:00,45.2,42.0,28.99,North,360,0.0,0.0,89,0.00,,,0.00,Rainwise IP-100,2013-05-17 06:27:00,
2013-05-17 02:32:00,44.7,42.0,28.99,North,360,0.0,0.0,90,0.00,,,0.00,Rainwise IP-100,2013-05-17 06:32:00,
2013-05-17 02:37:00,44.3,41.0,28.98,North,360,0.0,0.0,91,0.00,,,0.00,Rainwise IP-100,2013-05-17 06:37:00,
2013-05-17 02:42:00,43.9,41.0,28.98,North,360,0.0,0.0,91,0.00,,,0.00,Rainwise IP-100,2013-05-17 06:42:00,
2013-05-17 02:47:00,43.8,42.0,28.98,North,360,0.0,0.0,92,0.00,,,0.00,Rainwise IP-100,2013-05-17 06:47:00,
2013-05-17 02:53:00,43.7,42.0,28.98,North,360,0.0,0.0,93,0.00,,,0.00,Rainwise IP-100,2013-05-17 06:53:00,
2013-05-17 02:58:00,43.4,41.0,28.98,North,360,0.0,0.0,94,0.00,,,0.00,Rainwise IP-100,2013-05-17 06:58:00,
2013-05-17 03:03:00,43.2,41.0,28.98,North,360,0.0,0.0,94,0.00,,,0.00,Rainwise IP-100,2013-05-17 07:03:00,
2013-05-17 03:08:00,42.9,42.0,28.98,North,360,0.0,0.0,95,0.00,,,0.00,Rainwise IP-100,2013-05-17 07:08:00,
2013-05-17 03:13:00,42.9,42.0,28.98,North,360,0.0,0.0,96,0.00,,,0.00,Rainwise IP-100,2013-05-17 07:13:00,
2013-05-17 03:18:00,42.8,42.0,28.98,North,360,0.0,0.0,96,0.00,,,0.00,Rainwise IP-100,2013-05-17 07:18:00,
2013-05-17 03:23:00,43.2,42.0,28.98,WSW,247,2.0,2.0,96,0.00,,,0.00,Rainwise IP-100,2013-05-17 07:23:00,
2013-05-17 03:28:00,43.4,42.0,28.99,WSW,247,0.0,2.0,95,0.00,,,0.00,Rainwise IP-100,2013-05-17 07:28:00,
2013-05-17 03:33:00,42.9,42.0,28.98,WSW,247,0.0,2.0,95,0.00,,,0.00,Rainwise IP-100,2013-05-17 07:33:00,
2013-05-17 03:38:00,42.3,41.0,28.99,WSW,247,0.0,0.0,96,0.00,,,0.00,Rainwise IP-100,2013-05-17 07:38:00,
2013-05-17 03:43:00,41.9,41.0,28.98,WSW,247,0.0,0.0,96,0.00,,,0.00,Rainwise IP-100,2013-05-17 07:43:00,
2013-05-17 03:48:00,41.9,41.0,28.98,WSW,247,0.0,0.0,96,0.00,,,0.00,Rainwise IP-100,2013-05-17 07:48:00,
2013-05-17 03:54:00,41.8,41.0,28.98,WSW,247,0.0,0.0,96,0.00,,,0.00,Rainwise IP-100,2013-05-17 07:54:00,
2013-05-17 03:59:00,41.5,41.0,28.99,WSW,247,0.0,0.0,96,0.00,,,0.00,Rainwise IP-100,2013-05-17 07:59:00,
2013-05-17 04:04:00,41.5,41.0,28.99,WSW,247,0.0,0.0,96,0.00,,,0.00,Rainwise IP-100,2013-05-17 08:04:00,
2013-05-17 04:09:00,41.5,41.0,28.99,WSW,247,0.0,0.0,96,0.00,,,0.00,Rainwise IP-100,2013-05-17 08:09:00,
2013-05-17 04:14:00,41.1,40.0,28.99,WSW,247,0.0,0.0,96,0.00,,,0.00,Rainwise IP-100,2013-05-17 08:14:00,
2013-05-17 04:19:00,41.1,40.0,28.99,WSW,247,0.0,0.0,96,0.00,,,0.00,Rainwise IP-100,2013-05-17 08:19:00,
2013-05-17 04:24:00,40.9,40.0,28.99,WSW,247,0.0,0.0,96,0.00,,,0.00,Rainwise IP-100,2013-05-17 08:24:00,
2013-05-17 04:29:00,40.8,40.0,28.99,WSW,247,0.0,0.0,96,0.00,,,0.00,Rainwise IP-100,2013-05-17 08:29:00,
2013-05-17 04:34:00,40.7,40.0,28.99,WSW,247,0.0,0.0,96,0.00,,,0.00,Rainwise IP-100,2013-05-17 08:34:00,
2013-05-17 04:39:00,40.4,39.0,28.99,WSW,247,0.0,0.0,96,0.00,,,0.00,Rainwise IP-100,2013-05-17 08:39:00,
2013-05-17 04:44:00,40.3,39.0,28.99,WSW,247,1.0,2.0,96,0.00,,,0.00,Rainwise IP-100,2013-05-17 08:44:00,
2013-05-17 04:49:00,40.3,39.0,28.99,WSW,247,0.0,1.0,96,0.00,,,0.00,Rainwise IP-100,2013-05-17 08:49:00,
2013-05-17 04:55:00,40.3,39.0,29.00,WSW,247,0.0,0.0,96,0.00,,,0.00,Rainwise IP-100,2013-05-17 08:55:00,
2013-05-17 05:00:00,40.0,39.0,29.00,WSW,247,1.0,2.0,96,0.00,,,0.00,Rainwise IP-100,2013-05-17 09:00:00,
2013-05-17 05:05:00,40.5,40.0,29.00,WSW,247,0.0,2.0,96,0.00,,,0.00,Rainwise IP-100,2013-05-17 09:05:00,
2013-05-17 05:10:00,40.8,40.0,29.01,WSW,247,0.0,0.0,96,0.00,,,0.00,Rainwise IP-100,2013-05-17 09:10:00,
2013-05-17 05:15:00,40.9,40.0,29.01,WSW,247,0.0,0.0,96,0.00,,,0.00,Rainwise IP-100,2013-05-17 09:15:00,
2013-05-17 05:20:00,40.7,40.0,29.01,WSW,247,0.0,0.0,96,0.00,,,0.00,Rainwise IP-100,2013-05-17 09:20:00,
2013-05-17 05:25:00,40.9,40.0,29.01,WSW,247,0.0,0.0,96,0.00,,,0.00,Rainwise IP-100,2013-05-17 09:25:00,
2013-05-17 05:30:00,40.8,40.0,29.01,WSW,247,0.0,0.0,96,0.00,,,0.00,Rainwise IP-100,2013-05-17 09:30:00,
2013-05-17 05:35:00,40.7,40.0,29.01,WSW,247,0.0,0.0,96,0.00,,,0.00,Rainwise IP-100,2013-05-17 09:35:00,
2013-05-17 05:40:00,40.6,40.0,29.01,WSW,247,0.0,0.0,96,0.00,,,0.00,Rainwise IP-100,2013-05-17 09:40:00,
2013-05-17 05:45:00,40.7,40.0,29.01,WSW,247,0.0,0.0,96,0.00,,,0.00,Rainwise IP-100,2013-05-17 09:45:00,
2013-05-17 05:50:00,40.2,39.0,29.01,WSW,247,0.0,1.0,96,0.00,,,0.00,Rainwise IP-100,2013-05-17 09:50:00,
2013-05-17 05:56:00,39.7,39.0,29.01,WSW,247,1.0,0.0,96,0.00,,,0.00,Rainwise IP-100,2013-05-17 09:56:00,
2013-05-17 06:01:00,39.4,38.0,29.01,SSW,202,2.0,2.0,96,0.00,,,0.00,Rainwise IP-100,2013-05-17 10:01:00,
2013-05-17 06:06:00,39.6,39.0,29.02,SSW,202,1.0,2.0,96,0.00,,,0.00,Rainwise IP-100,2013-05-17 10:06:00,
2013-05-17 06:11:00,39.8,39.0,29.03,SSW,202,1.0,2.0,96,0.00,,,0.00,Rainwise IP-100,2013-05-17 10:11:00,
2013-05-17 06:16:00,40.1,39.0,29.03,SSW,202,1.0,2.0,96,0.00,,,0.00,Rainwise IP-100,2013-05-17 10:16:00,
2013-05-17 06:21:00,40.4,39.0,29.03,SSW,202,1.0,2.0,96,0.00,,,0.00,Rainwise IP-100,2013-05-17 10:21:00,
2013-05-17 06:26:00,40.8,40.0,29.04,SSW,202,2.0,2.0,96,0.00,,,0.00,Rainwise IP-100,2013-05-17 10:26:00,
2013-05-17 06:31:00,41.3,40.0,29.04,SSW,202,1.0,2.0,96,0.00,,,0.00,Rainwise IP-100,2013-05-17 10:31:00,
2013-05-17 06:36:00,41.8,41.0,29.05,SSW,202,0.0,2.0,96,0.00,,,0.00,Rainwise IP-100,2013-05-17 10:36:00,
2013-05-17 06:41:00,42.0,41.0,29.05,SSW,202,0.0,0.0,96,0.00,,,0.00,Rainwise IP-100,2013-05-17 10:41:00,
2013-05-17 06:46:00,42.3,41.0,29.05,SSW,202,0.0,0.0,96,0.00,,,0.00,Rainwise IP-100,2013-05-17 10:46:00,
2013-05-17 06:51:00,42.6,42.0,29.05,SSW,202,0.0,0.0,96,0.00,,,0.00,Rainwise IP-100,2013-05-17 10:51:00,
2013-05-17 06:57:00,42.9,42.0,29.06,SSW,202,0.0,0.0,96,0.00,,,0.00,Rainwise IP-100,2013-05-17 10:57:00,
2013-05-17 07:02:00,43.4,42.0,29.06,SSW,202,0.0,0.0,96,0.00,,,0.00,Rainwise IP-100,2013-05-17 11:02:00,
2013-05-17 07:07:00,44.1,43.0,29.07,SSW,202,0.0,0.0,96,0.00,,,0.00,Rainwise IP-100,2013-05-17 11:07:00,
2013-05-17 07:12:00,45.1,44.0,29.07,SSW,202,0.0,0.0,97,0.00,,,0.00,Rainwise IP-100,2013-05-17 11:12:00,
2013-05-17 07:17:00,46.3,44.0,29.08,SSW,202,0.0,0.0,95,0.00,,,0.00,Rainwise IP-100,2013-05-17 11:17:00,
2013-05-17 07:22:00,47.1,45.0,29.09,SSW,202,0.0,0.0,93,0.00,,,0.00,Rainwise IP-100,2013-05-17 11:22:00,
2013-05-17 07:27:00,47.9,46.0,29.10,SSW,202,0.0,0.0,90,0.00,,,0.00,Rainwise IP-100,2013-05-17 11:27:00,
2013-05-17 07:32:00,49.1,44.0,29.11,SSW,202,0.0,0.0,83,0.00,,,0.00,Rainwise IP-100,2013-05-17 11:32:00,
2013-05-17 07:37:00,49.9,44.0,29.11,ENE,67,1.0,2.0,81,0.00,,,0.00,Rainwise IP-100,2013-05-17 11:37:00,
2013-05-17 07:42:00,50.7,43.0,29.12,NE,45,1.0,2.0,75,0.00,,,0.00,Rainwise IP-100,2013-05-17 11:42:00,
2013-05-17 07:47:00,51.3,45.0,29.13,NE,45,0.0,2.0,78,0.00,,,0.00,Rainwise IP-100,2013-05-17 11:47:00,
2013-05-17 07:52:00,51.9,42.0,29.14,NE,45,2.0,2.0,69,0.00,,,0.00,Rainwise IP-100,2013-05-17 11:52:00,
2013-05-17 07:58:00,52.5,43.0,29.15,NNE,22,2.0,2.0,71,0.00,,,0.00,Rainwise IP-100,2013-05-17 11:58:00,
2013-05-17 08:03:00,52.9,41.0,29.16,NE,45,1.0,2.0,65,0.00,,,0.00,Rainwise IP-100,2013-05-17 12:03:00,
2013-05-17 08:08:00,53.3,45.0,29.16,ESE,112,2.0,3.0,72,0.00,,,0.00,Rainwise IP-100,2013-05-17 12:08:00,
2013-05-17 08:13:00,53.1,42.0,29.17,NNE,22,1.0,3.0,67,0.00,,,0.00,Rainwise IP-100,2013-05-17 12:13:00,
2013-05-17 08:18:00,53.5,42.0,29.17,NE,45,1.0,3.0,67,0.00,,,0.00,Rainwise IP-100,2013-05-17 12:18:00,
2013-05-17 08:23:00,53.9,42.0,29.17,NE,45,1.0,4.0,65,0.00,,,0.00,Rainwise IP-100,2013-05-17 12:23:00,
2013-05-17 08:28:00,54.3,43.0,29.18,ESE,112,1.0,2.0,65,0.00,,,0.00,Rainwise IP-100,2013-05-17 12:28:00,
2013-05-17 08:33:00,54.8,41.0,29.19,East,90,1.0,4.0,60,0.00,,,0.00,Rainwise IP-100,2013-05-17 12:33:00,
2013-05-17 08:38:00,54.2,41.0,29.19,ESE,112,1.0,6.0,63,0.00,,,0.00,Rainwise IP-100,2013-05-17 12:38:00,
2013-05-17 08:43:00,54.1,41.0,29.19,ESE,112,2.0,5.0,63,0.00,,,0.00,Rainwise IP-100,2013-05-17 12:43:00,
2013-05-17 08:48:00,54.3,43.0,29.19,East,90,2.0,7.0,64,0.00,,,0.00,Rainwise IP-100,2013-05-17 12:48:00,
2013-05-17 08:53:00,54.4,42.0,29.20,ENE,67,4.0,7.0,63,0.00,,,0.00,Rainwise IP-100,2013-05-17 12:53:00,
2013-05-17 08:59:00,54.9,43.0,29.20,ESE,112,2.0,6.0,63,0.00,,,0.00,Rainwise IP-100,2013-05-17 12:59:00,
2013-05-17 09:04:00,55.4,42.0,29.21,NE,45,2.0,6.0,61,0.00,,,0.00,Rainwise IP-100,2013-05-17 13:04:00,
2013-05-17 09:09:00,55.6,43.0,29.21,ESE,112,2.0,6.0,63,0.00,,,0.00,Rainwise IP-100,2013-05-17 13:09:00,
2013-05-17 09:14:00,55.7,43.0,29.21,East,90,2.0,6.0,62,0.00,,,0.00,Rainwise IP-100,2013-05-17 13:14:00,
2013-05-17 09:19:00,56.4,43.0,29.22,NNE,22,2.0,5.0,60,0.00,,,0.00,Rainwise IP-100,2013-05-17 13:19:00,
2013-05-17 09:24:00,56.9,42.0,29.22,NNW,337,2.0,4.0,58,0.00,,,0.00,Rainwise IP-100,2013-05-17 13:24:00,
2013-05-17 09:29:00,56.6,41.0,29.22,ESE,112,2.0,7.0,57,0.00,,,0.00,Rainwise IP-100,2013-05-17 13:29:00,
2013-05-17 09:34:00,56.7,41.0,29.22,NNE,22,2.0,9.0,57,0.00,,,0.00,Rainwise IP-100,2013-05-17 13:34:00,
2013-05-17 09:39:00,57.5,43.0,29.22,NE,45,3.0,6.0,58,0.00,,,0.00,Rainwise IP-100,2013-05-17 13:39:00,
2013-05-17 09:44:00,58.1,42.0,29.23,East,90,1.0,5.0,56,0.00,,,0.00,Rainwise IP-100,2013-05-17 13:44:00,
2013-05-17 09:49:00,57.9,41.0,29.23,ENE,67,3.0,4.0,53,0.00,,,0.00,Rainwise IP-100,2013-05-17 13:49:00,
2013-05-17 09:54:00,58.3,41.0,29.23,East,90,4.0,4.0,54,0.00,,,0.00,Rainwise IP-100,2013-05-17 13:54:00,
2013-05-17 10:00:00,57.5,41.0,29.23,ENE,67,4.0,6.0,55,0.00,,,0.00,Rainwise IP-100,2013-05-17 14:00:00,
2013-05-17 10:05:00,57.2,41.0,29.23,ESE,112,2.0,5.0,56,0.00,,,0.00,Rainwise IP-100,2013-05-17 14:05:00,
2013-05-17 10:10:00,56.9,43.0,29.23,ESE,112,2.0,6.0,59,0.00,,,0.00,Rainwise IP-100,2013-05-17 14:10:00,
2013-05-17 10:15:00,56.9,42.0,29.23,NE,45,3.0,5.0,58,0.00,,,0.00,Rainwise IP-100,2013-05-17 14:15:00,
2013-05-17 10:20:00,58.1,44.0,29.23,NNE,22,2.0,3.0,59,0.00,,,0.00,Rainwise IP-100,2013-05-17 14:20:00,
2013-05-17 10:25:00,58.9,44.0,29.24,North,360,1.0,6.0,58,0.00,,,0.00,Rainwise IP-100,2013-05-17 14:25:00,
2013-05-17 10:30:00,59.4,44.0,29.25,NE,45,1.0,3.0,57,0.00,,,0.00,Rainwise IP-100,2013-05-17 14:30:00,
2013-05-17 10:35:00,60.1,42.0,29.25,North,360,3.0,4.0,52,0.00,,,0.00,Rainwise IP-100,2013-05-17 14:35:00,
2013-05-17 10:40:00,59.6,42.0,29.26,NE,45,1.0,6.0,53,0.00,,,0.00,Rainwise IP-100,2013-05-17 14:40:00,
2013-05-17 10:45:00,58.9,42.0,29.26,ESE,112,1.0,7.0,53,0.00,,,0.00,Rainwise IP-100,2013-05-17 14:45:00,
2013-05-17 10:50:00,59.6,44.0,29.26,South,180,2.0,5.0,57,0.00,,,0.00,Rainwise IP-100,2013-05-17 14:50:00,
2013-05-17 10:55:00,60.3,44.0,29.26,SE,135,2.0,3.0,55,0.00,,,0.00,Rainwise IP-100,2013-05-17 14:55:00,
2013-05-17 11:01:00,59.4,43.0,29.27,ESE,112,0.0,8.0,55,0.00,,,0.00,Rainwise IP-100,2013-05-17 15:01:00,
2013-05-17 11:06:00,58.6,41.0,29.27,NE,45,2.0,7.0,52,0.00,,,0.00,Rainwise IP-100,2013-05-17 15:06:00,
2013-05-17 11:11:00,59.6,41.0,29.27,East,90,3.0,5.0,51,0.00,,,0.00,Rainwise IP-100,2013-05-17 15:11:00,
2013-05-17 11:16:00,59.0,41.0,29.26,WSW,247,2.0,4.0,51,0.00,,,0.00,Rainwise IP-100,2013-05-17 15:16:00,
2013-05-17 11:21:00,60.0,42.0,29.26,SW,225,3.0,6.0,52,0.00,,,0.00,Rainwise IP-100,2013-05-17 15:21:00,
2013-05-17 11:26:00,60.8,42.0,29.26,South,180,1.0,4.0,50,0.00,,,0.00,Rainwise IP-100,2013-05-17 15:26:00,
2013-05-17 11:31:00,59.9,41.0,29.26,SE,135,1.0,6.0,50,0.00,,,0.00,Rainwise IP-100,2013-05-17 15:31:00,
2013-05-17 11:36:00,59.7,41.0,29.25,NNW,337,1.0,6.0,50,0.00,,,0.00,Rainwise IP-100,2013-05-17 15:36:00,
2013-05-17 11:41:00,60.9,45.0,29.25,West,270,3.0,6.0,55,0.00,,,0.00,Rainwise IP-100,2013-05-17 15:41:00,
2013-05-17 11:46:00,60.8,42.0,29.25,South,180,4.0,7.0,50,0.00,,,0.00,Rainwise IP-100,2013-05-17 15:46:00,
2013-05-17 11:51:00,60.8,41.0,29.26,ESE,112,2.0,7.0,49,0.00,,,0.00,Rainwise IP-100,2013-05-17 15:51:00,
2013-05-17 11:56:00,60.3,42.0,29.25,SE,135,4.0,7.0,50,0.00,,,0.00,Rainwise IP-100,2013-05-17 15:56:00,
2013-05-17 12:02:00,60.9,43.0,29.25,South,180,4.0,7.0,52,0.00,,,0.00,Rainwise IP-100,2013-05-17 16:02:00,
2013-05-17 12:07:00,61.8,44.0,29.25,South,180,0.0,5.0,51,0.00,,,0.00,Rainwise IP-100,2013-05-17 16:07:00,
2013-05-17 12:12:00,62.1,41.0,29.25,NE,45,2.0,6.0,47,0.00,,,0.00,Rainwise IP-100,2013-05-17 16:12:00,
2013-05-17 12:17:00,63.3,42.0,29.25,South,180,6.0,6.0,45,0.00,,,0.00,Rainwise IP-100,2013-05-17 16:17:00,
2013-05-17 12:22:00,63.1,42.0,29.26,South,180,2.0,7.0,47,0.00,,,0.00,Rainwise IP-100,2013-05-17 16:22:00,
2013-05-17 12:27:00,62.6,42.0,29.25,East,90,4.0,7.0,48,0.00,,,0.00,Rainwise IP-100,2013-05-17 16:27:00,
2013-05-17 12:32:00,62.2,42.0,29.25,SE,135,2.0,5.0,49,0.00,,,0.00,Rainwise IP-100,2013-05-17 16:32:00,
2013-05-17 12:37:00,62.1,41.0,29.25,East,90,0.0,5.0,47,0.00,,,0.00,Rainwise IP-100,2013-05-17 16:37:00,
2013-05-17 12:42:00,61.8,40.0,29.25,West,270,5.0,5.0,45,0.00,,,0.00,Rainwise IP-100,2013-05-17 16:42:00,
2013-05-17 12:47:00,61.6,43.0,29.25,WSW,247,4.0,6.0,50,0.00,,,0.00,Rainwise IP-100,2013-05-17 16:47:00,
2013-05-17 12:52:00,62.9,44.0,29.25,SE,135,2.0,5.0,50,0.00,,,0.00,Rainwise IP-100,2013-05-17 16:52:00,
2013-05-17 12:57:00,62.9,43.0,29.25,ESE,112,6.0,7.0,48,0.00,,,0.00,Rainwise IP-100,2013-05-17 16:57:00,
2013-05-17 13:03:00,63.8,43.0,29.25,NNE,22,4.0,6.0,46,0.00,,,0.00,Rainwise IP-100,2013-05-17 17:03:00,
2013-05-17 13:08:00,64.4,43.0,29.25,NNE,22,4.0,6.0,46,0.00,,,0.00,Rainwise IP-100,2013-05-17 17:08:00,
2013-05-17 13:13:00,64.6,42.0,29.25,NNE,22,2.0,9.0,44,0.00,,,0.00,Rainwise IP-100,2013-05-17 17:13:00,
2013-05-17 13:18:00,63.9,40.0,29.25,ENE,67,6.0,6.0,42,0.00,,,0.00,Rainwise IP-100,2013-05-17 17:18:00,
2013-05-17 13:23:00,63.7,43.0,29.25,East,90,1.0,7.0,47,0.00,,,0.00,Rainwise IP-100,2013-05-17 17:23:00,
2013-05-17 13:28:00,64.3,42.0,29.25,NE,45,2.0,6.0,45,0.00,,,0.00,Rainwise IP-100,2013-05-17 17:28:00,
2013-05-17 13:33:00,64.6,41.0,29.25,SE,135,5.0,5.0,42,0.00,,,0.00,Rainwise IP-100,2013-05-17 17:33:00,
2013-05-17 13:38:00,64.1,41.0,29.25,SE,135,3.0,6.0,44,0.00,,,0.00,Rainwise IP-100,2013-05-17 17:38:00,
2013-05-17 13:43:00,63.9,45.0,29.25,SE,135,3.0,7.0,50,0.00,,,0.00,Rainwise IP-100,2013-05-17 17:43:00,
2013-05-17 13:48:00,63.9,41.0,29.25,SSE,157,2.0,4.0,43,0.00,,,0.00,Rainwise IP-100,2013-05-17 17:48:00,
2013-05-17 13:53:00,63.9,42.0,29.25,NE,45,6.0,7.0,45,0.00,,,0.00,Rainwise IP-100,2013-05-17 17:53:00,
2013-05-17 13:58:00,64.2,40.0,29.25,North,360,2.0,7.0,41,0.00,,,0.00,Rainwise IP-100,2013-05-17 17:58:00,
2013-05-17 14:04:00,64.1,40.0,29.25,NE,45,2.0,5.0,42,0.00,,,0.00,Rainwise IP-100,2013-05-17 18:04:00,
2013-05-17 14:09:00,64.3,41.0,29.25,NNE,22,2.0,4.0,43,0.00,,,0.00,Rainwise IP-100,2013-05-17 18:09:00,
2013-05-17 14:14:00,64.2,41.0,29.25,SE,135,3.0,4.0,43,0.00,,,0.00,Rainwise IP-100,2013-05-17 18:14:00,
2013-05-17 14:19:00,64.9,40.0,29.25,South,180,2.0,6.0,40,0.00,,,0.00,Rainwise IP-100,2013-05-17 18:19:00,
2013-05-17 14:24:00,64.5,42.0,29.25,NE,45,4.0,4.0,45,0.00,,,0.00,Rainwise IP-100,2013-05-17 18:24:00,
2013-05-17 14:29:00,64.2,43.0,29.25,NNW,337,6.0,7.0,46,0.00,,,0.00,Rainwise IP-100,2013-05-17 18:29:00,
2013-05-17 14:34:00,64.4,44.0,29.25,North,360,3.0,6.0,48,0.00,,,0.00,Rainwise IP-100,2013-05-17 18:34:00,
2013-05-17 14:39:00,64.9,42.0,29.25,NNW,337,2.0,7.0,44,0.00,,,0.00,Rainwise IP-100,2013-05-17 18:39:00,
2013-05-17 14:44:00,64.5,46.0,29.25,ENE,67,1.0,6.0,51,0.00,,,0.00,Rainwise IP-100,2013-05-17 18:44:00,
2013-05-17 14:49:00,64.2,46.0,29.25,NNE,22,2.0,5.0,51,0.00,,,0.00,Rainwise IP-100,2013-05-17 18:49:00,
2013-05-17 14:54:00,63.7,44.0,29.25,NE,45,2.0,6.0,49,0.00,,,0.00,Rainwise IP-100,2013-05-17 18:54:00,
2013-05-17 14:59:00,63.7,45.0,29.25,NNE,22,2.0,8.0,50,0.00,,,0.00,Rainwise IP-100,2013-05-17 18:59:00,
2013-05-17 15:05:00,64.3,46.0,29.25,NNE,22,4.0,9.0,50,0.00,,,0.00,Rainwise IP-100,2013-05-17 19:05:00,
2013-05-17 15:10:00,64.6,46.0,29.25,NE,45,3.0,6.0,50,0.00,,,0.00,Rainwise IP-100,2013-05-17 19:10:00,
2013-05-17 15:15:00,65.0,45.0,29.25,NE,45,3.0,7.0,49,0.00,,,0.00,Rainwise IP-100,2013-05-17 19:15:00,
2013-05-17 15:20:00,64.6,44.0,29.25,North,360,6.0,10.0,48,0.00,,,0.00,Rainwise IP-100,2013-05-17 19:20:00,
2013-05-17 15:25:00,64.8,44.0,29.25,ENE,67,2.0,7.0,46,0.00,,,0.00,Rainwise IP-100,2013-05-17 19:25:00,
2013-05-17 15:30:00,64.9,44.0,29.25,NNE,22,3.0,7.0,47,0.00,,,0.00,Rainwise IP-100,2013-05-17 19:30:00,
2013-05-17 15:35:00,64.9,43.0,29.25,NNE,22,3.0,5.0,45,0.00,,,0.00,Rainwise IP-100,2013-05-17 19:35:00,
2013-05-17 15:40:00,65.6,42.0,29.25,NE,45,1.0,5.0,43,0.00,,,0.00,Rainwise IP-100,2013-05-17 19:40:00,
2013-05-17 15:45:00,65.4,42.0,29.25,NNW,337,2.0,7.0,43,0.00,,,0.00,Rainwise IP-100,2013-05-17 19:45:00,
2013-05-17 15:50:00,65.7,43.0,29.25,NE,45,2.0,5.0,45,0.00,,,0.00,Rainwise IP-100,2013-05-17 19:50:00,
2013-05-17 15:55:00,65.6,41.0,29.25,East,90,1.0,5.0,42,0.00,,,0.00,Rainwise IP-100,2013-05-17 19:55:00,
2013-05-17 16:00:00,66.4,42.0,29.25,NNE,22,3.0,4.0,41,0.00,,,0.00,Rainwise IP-100,2013-05-17 20:00:00,
2013-05-17 16:06:00,66.3,45.0,29.26,NE,45,1.0,8.0,46,0.00,,,0.00,Rainwise IP-100,2013-05-17 20:06:00,
2013-05-17 16:11:00,65.9,43.0,29.25,NE,45,2.0,6.0,44,0.00,,,0.00,Rainwise IP-100,2013-05-17 20:11:00,
2013-05-17 16:16:00,65.7,41.0,29.25,East,90,6.0,6.0,42,0.00,,,0.00,Rainwise IP-100,2013-05-17 20:16:00,
2013-05-17 16:21:00,65.8,40.0,29.25,NE,45,2.0,6.0,39,0.00,,,0.00,Rainwise IP-100,2013-05-17 20:21:00,
2013-05-17 16:26:00,65.9,39.0,29.25,NNE,22,2.0,4.0,37,0.00,,,0.00,Rainwise IP-100,2013-05-17 20:26:00,
2013-05-17 16:31:00,66.3,42.0,29.25,NNE,22,4.0,5.0,42,0.00,,,0.00,Rainwise IP-100,2013-05-17 20:31:00,
2013-05-17 16:36:00,65.5,40.0,29.25,NNE,22,2.0,7.0,40,0.00,,,0.00,Rainwise IP-100,2013-05-17 20:36:00,
2013-05-17 16:41:00,66.2,41.0,29.25,NE,45,2.0,7.0,40,0.00,,,0.00,Rainwise IP-100,2013-05-17 20:41:00,
2013-05-17 16:46:00,66.5,42.0,29.25,ENE,67,1.0,4.0,41,0.00,,,0.00,Rainwise IP-100,2013-05-17 20:46:00,
2013-05-17 16:51:00,65.9,44.0,29.25,NE,45,2.0,4.0,45,0.00,,,0.00,Rainwise IP-100,2013-05-17 20:51:00,
2013-05-17 16:56:00,65.7,41.0,29.26,NE,45,2.0,4.0,42,0.00,,,0.00,Rainwise IP-100,2013-05-17 20:56:00,
2013-05-17 17:01:00,65.7,40.0,29.26,NE,45,2.0,5.0,40,0.00,,,0.00,Rainwise IP-100,2013-05-17 21:01:00,
2013-05-17 17:07:00,65.8,39.0,29.26,NNE,22,4.0,4.0,38,0.00,,,0.00,Rainwise IP-100,2013-05-17 21:07:00,
2013-05-17 17:12:00,66.2,39.0,29.26,NNE,22,1.0,4.0,37,0.00,,,0.00,Rainwise IP-100,2013-05-17 21:12:00,
2013-05-17 17:17:00,66.3,40.0,29.26,NNE,22,1.0,5.0,39,0.00,,,0.00,Rainwise IP-100,2013-05-17 21:17:00,
2013-05-17 17:22:00,65.9,40.0,29.26,NE,45,1.0,5.0,39,0.00,,,0.00,Rainwise IP-100,2013-05-17 21:22:00,
2013-05-17 17:27:00,65.7,40.0,29.26,NE,45,2.0,4.0,39,0.00,,,0.00,Rainwise IP-100,2013-05-17 21:27:00,
2013-05-17 17:32:00,66.1,37.0,29.25,ENE,67,2.0,5.0,35,0.00,,,0.00,Rainwise IP-100,2013-05-17 21:32:00,
2013-05-17 17:37:00,65.8,36.0,29.25,NNE,22,2.0,6.0,33,0.00,,,0.00,Rainwise IP-100,2013-05-17 21:37:00,
2013-05-17 17:42:00,65.6,35.0,29.25,NE,45,2.0,4.0,31,0.00,,,0.00,Rainwise IP-100,2013-05-17 21:42:00,
2013-05-17 17:47:00,65.9,36.0,29.25,North,360,1.0,5.0,33,0.00,,,0.00,Rainwise IP-100,2013-05-17 21:47:00,
2013-05-17 17:52:00,65.7,35.0,29.25,NE,45,2.0,4.0,32,0.00,,,0.00,Rainwise IP-100,2013-05-17 21:52:00,
2013-05-17 17:57:00,65.4,35.0,29.25,NE,45,2.0,2.0,32,0.00,,,0.00,Rainwise IP-100,2013-05-17 21:57:00,
2013-05-17 18:02:00,65.8,36.0,29.25,ENE,67,0.0,3.0,33,0.00,,,0.00,Rainwise IP-100,2013-05-17 22:02:00,
2013-05-17 18:08:00,66.7,39.0,29.25,North,360,0.0,2.0,37,0.00,,,0.00,Rainwise IP-100,2013-05-17 22:08:00,
2013-05-17 18:13:00,66.8,36.0,29.25,NE,45,2.0,3.0,32,0.00,,,0.00,Rainwise IP-100,2013-05-17 22:13:00,
2013-05-17 18:18:00,66.5,37.0,29.26,NNE,22,1.0,4.0,33,0.00,,,0.00,Rainwise IP-100,2013-05-17 22:18:00,
2013-05-17 18:23:00,66.2,38.0,29.26,NE,45,1.0,4.0,35,0.00,,,0.00,Rainwise IP-100,2013-05-17 22:23:00,
2013-05-17 18:28:00,66.2,36.0,29.25,NNE,22,1.0,4.0,33,0.00,,,0.00,Rainwise IP-100,2013-05-17 22:28:00,
2013-05-17 18:33:00,65.9,37.0,29.25,NE,45,2.0,4.0,34,0.00,,,0.00,Rainwise IP-100,2013-05-17 22:33:00,
2013-05-17 18:38:00,65.9,35.0,29.25,ENE,67,1.0,4.0,32,0.00,,,0.00,Rainwise IP-100,2013-05-17 22:38:00,
2013-05-17 18:43:00,66.1,39.0,29.25,NE,45,2.0,3.0,38,0.00,,,0.00,Rainwise IP-100,2013-05-17 22:43:00,
2013-05-17 18:48:00,65.9,37.0,29.25,ENE,67,1.0,2.0,34,0.00,,,0.00,Rainwise IP-100,2013-05-17 22:48:00,
2013-05-17 18:53:00,65.7,37.0,29.25,NNE,22,1.0,3.0,35,0.00,,,0.00,Rainwise IP-100,2013-05-17 22:53:00,
2013-05-17 18:58:00,65.5,36.0,29.25,SE,135,0.0,2.0,33,0.00,,,0.00,Rainwise IP-100,2013-05-17 22:58:00,
2013-05-17 19:03:00,65.9,36.0,29.25,ESE,112,0.0,2.0,33,0.00,,,0.00,Rainwise IP-100,2013-05-17 23:03:00,
2013-05-17 19:09:00,66.2,38.0,29.25,ENE,67,1.0,2.0,35,0.00,,,0.00,Rainwise IP-100,2013-05-17 23:09:00,
2013-05-17 19:14:00,65.6,36.0,29.25,East,90,2.0,2.0,34,0.00,,,0.00,Rainwise IP-100,2013-05-17 23:14:00,
2013-05-17 19:19:00,65.6,36.0,29.25,ENE,67,0.0,2.0,33,0.00,,,0.00,Rainwise IP-100,2013-05-17 23:19:00,
2013-05-17 19:24:00,65.7,40.0,29.24,ENE,67,0.0,2.0,39,0.00,,,0.00,Rainwise IP-100,2013-05-17 23:24:00,
2013-05-17 19:29:00,65.3,36.0,29.24,ENE,67,0.0,2.0,33,0.00,,,0.00,Rainwise IP-100,2013-05-17 23:29:00,
2013-05-17 19:34:00,64.9,38.0,29.23,ENE,67,1.0,2.0,37,0.00,,,0.00,Rainwise IP-100,2013-05-17 23:34:00,
2013-05-17 19:39:00,64.2,38.0,29.23,ENE,67,0.0,2.0,38,0.00,,,0.00,Rainwise IP-100,2013-05-17 23:39:00,
2013-05-17 19:44:00,63.7,38.0,29.23,ENE,67,0.0,0.0,39,0.00,,,0.00,Rainwise IP-100,2013-05-17 23:44:00,
2013-05-17 19:49:00,62.9,36.0,29.22,ENE,67,0.0,1.0,37,0.00,,,0.00,Rainwise IP-100,2013-05-17 23:49:00,
2013-05-17 19:54:00,62.4,37.0,29.21,ENE,67,0.0,0.0,38,0.00,,,0.00,Rainwise IP-100,2013-05-17 23:54:00,
2013-05-17 19:59:00,61.8,37.0,29.21,ENE,67,0.0,0.0,39,0.00,,,0.00,Rainwise IP-100,2013-05-17 23:59:00,
2013-05-17 20:04:00,61.1,36.0,29.21,ENE,67,0.0,0.0,39,0.00,,,0.00,Rainwise IP-100,2013-05-18 00:04:00,
2013-05-17 20:10:00,60.7,36.0,29.21,ENE,67,0.0,0.0,40,0.00,,,0.00,Rainwise IP-100,2013-05-18 00:10:00,
2013-05-17 20:15:00,60.4,37.0,29.20,ENE,67,0.0,0.0,41,0.00,,,0.00,Rainwise IP-100,2013-05-18 00:15:00,
2013-05-17 20:20:00,59.9,40.0,29.19,ENE,67,0.0,0.0,49,0.00,,,0.00,Rainwise IP-100,2013-05-18 00:20:00,
2013-05-17 20:25:00,59.1,41.0,29.19,ENE,67,0.0,0.0,52,0.00,,,0.00,Rainwise IP-100,2013-05-18 00:25:00,
2013-05-17 20:30:00,58.4,42.0,29.19,ENE,67,0.0,0.0,55,0.00,,,0.00,Rainwise IP-100,2013-05-18 00:30:00,
2013-05-17 20:35:00,57.5,41.0,29.18,ENE,67,0.0,0.0,54,0.00,,,0.00,Rainwise IP-100,2013-05-18 00:35:00,
2013-05-17 20:40:00,56.8,39.0,29.18,ENE,67,0.0,0.0,52,0.00,,,0.00,Rainwise IP-100,2013-05-18 00:40:00,
2013-05-17 20:45:00,56.2,40.0,29.18,ENE,67,0.0,0.0,55,0.00,,,0.00,Rainwise IP-100,2013-05-18 00:45:00,
2013-05-17 20:50:00,55.7,39.0,29.18,ENE,67,0.0,0.0,54,0.00,,,0.00,Rainwise IP-100,2013-05-18 00:50:00,
2013-05-17 20:55:00,55.4,41.0,29.17,ENE,67,0.0,0.0,58,0.00,,,0.00,Rainwise IP-100,2013-05-18 00:55:00,
2013-05-17 21:00:00,55.1,41.0,29.17,ENE,67,0.0,0.0,58,0.00,,,0.00,Rainwise IP-100,2013-05-18 01:00:00,
2013-05-17 21:06:00,54.7,40.0,29.17,SE,135,1.0,0.0,59,0.00,,,0.00,Rainwise IP-100,2013-05-18 01:06:00,
2013-05-17 21:11:00,54.4,41.0,29.17,SE,135,2.0,2.0,61,0.00,,,0.00,Rainwise IP-100,2013-05-18 01:11:00,
2013-05-17 21:16:00,53.9,42.0,29.17,SE,135,2.0,2.0,64,0.00,,,0.00,Rainwise IP-100,2013-05-18 01:16:00,
2013-05-17 21:21:00,53.5,43.0,29.17,SE,135,2.0,2.0,68,0.00,,,0.00,Rainwise IP-100,2013-05-18 01:21:00,
2013-05-17 21:26:00,52.9,42.0,29.17,SE,135,2.0,2.0,67,0.00,,,0.00,Rainwise IP-100,2013-05-18 01:26:00,
2013-05-17 21:31:00,52.7,43.0,29.17,SE,135,0.0,2.0,69,0.00,,,0.00,Rainwise IP-100,2013-05-18 01:31:00,
2013-05-17 21:36:00,52.3,42.0,29.17,SE,135,1.0,0.0,70,0.00,,,0.00,Rainwise IP-100,2013-05-18 01:36:00,
2013-05-17 21:41:00,52.0,42.0,29.17,SE,135,0.0,2.0,69,0.00,,,0.00,Rainwise IP-100,2013-05-18 01:41:00,
2013-05-17 21:46:00,51.7,42.0,29.17,SE,135,0.0,0.0,68,0.00,,,0.00,Rainwise IP-100,2013-05-18 01:46:00,
2013-05-17 21:51:00,51.5,42.0,29.17,SE,135,0.0,0.0,68,0.00,,,0.00,Rainwise IP-100,2013-05-18 01:51:00,
2013-05-17 21:56:00,51.4,41.0,29.17,SE,135,0.0,0.0,69,0.00,,,0.00,Rainwise IP-100,2013-05-18 01:56:00,
2013-05-17 22:01:00,51.1,41.0,29.17,SE,135,0.0,0.0,69,0.00,,,0.00,Rainwise IP-100,2013-05-18 02:01:00,
2013-05-17 22:07:00,50.9,42.0,29.17,SE,135,0.0,0.0,70,0.00,,,0.00,Rainwise IP-100,2013-05-18 02:07:00,
2013-05-17 22:12:00,50.7,41.0,29.17,SE,135,0.0,0.0,71,0.00,,,0.00,Rainwise IP-100,2013-05-18 02:12:00,
2013-05-17 22:17:00,50.4,42.0,29.17,SE,135,0.0,0.0,73,0.00,,,0.00,Rainwise IP-100,2013-05-18 02:17:00,
2013-05-17 22:22:00,50.1,42.0,29.17,SE,135,0.0,0.0,76,0.00,,,0.00,Rainwise IP-100,2013-05-18 02:22:00,
2013-05-17 22:27:00,49.8,42.0,29.16,SE,135,1.0,2.0,76,0.00,,,0.00,Rainwise IP-100,2013-05-18 02:27:00,
2013-05-17 22:32:00,49.6,43.0,29.16,SE,135,1.0,2.0,78,0.00,,,0.00,Rainwise IP-100,2013-05-18 02:32:00,
2013-05-17 22:37:00,49.4,42.0,29.16,SE,135,0.0,2.0,77,0.00,,,0.00,Rainwise IP-100,2013-05-18 02:37:00,
2013-05-17 22:42:00,49.3,42.0,29.16,SE,135,0.0,0.0,77,0.00,,,0.00,Rainwise IP-100,2013-05-18 02:42:00,
2013-05-17 22:47:00,49.7,43.0,29.16,SE,135,0.0,1.0,77,0.00,,,0.00,Rainwise IP-100,2013-05-18 02:47:00,
2013-05-17 22:52:00,49.5,42.0,29.16,SE,135,0.0,0.0,75,0.00,,,0.00,Rainwise IP-100,2013-05-18 02:52:00,
2013-05-17 22:57:00,49.4,42.0,29.16,SE,135,0.0,0.0,77,0.00,,,0.00,Rainwise IP-100,2013-05-18 02:57:00,
2013-05-17 23:03:00,49.1,43.0,29.16,SE,135,2.0,2.0,81,0.00,,,0.00,Rainwise IP-100,2013-05-18 03:03:00,
2013-05-17 23:08:00,48.8,44.0,29.16,SE,135,0.0,2.0,82,0.00,,,0.00,Rainwise IP-100,2013-05-18 03:08:00,
2013-05-17 23:13:00,48.6,44.0,29.16,SE,135,0.0,0.0,82,0.00,,,0.00,Rainwise IP-100,2013-05-18 03:13:00,
2013-05-17 23:18:00,48.3,44.0,29.16,SE,135,0.0,0.0,86,0.00,,,0.00,Rainwise IP-100,2013-05-18 03:18:00,
2013-05-17 23:23:00,48.2,42.0,29.16,SE,135,0.0,0.0,80,0.00,,,0.00,Rainwise IP-100,2013-05-18 03:23:00,
2013-05-17 23:28:00,47.7,44.0,29.16,SE,135,2.0,2.0,88,0.00,,,0.00,Rainwise IP-100,2013-05-18 03:28:00,
2013-05-17 23:33:00,47.2,44.0,29.16,South,180,1.0,2.0,92,0.00,,,0.00,Rainwise IP-100,2013-05-18 03:33:00,
2013-05-17 23:38:00,47.3,45.0,29.16,South,180,2.0,2.0,92,0.00,,,0.00,Rainwise IP-100,2013-05-18 03:38:00,
2013-05-17 23:43:00,47.5,44.0,29.16,South,180,0.0,2.0,87,0.00,,,0.00,Rainwise IP-100,2013-05-18 03:43:00,
2013-05-17 23:48:00,47.5,44.0,29.16,South,180,0.0,0.0,89,0.00,,,0.00,Rainwise IP-100,2013-05-18 03:48:00,
2013-05-17 23:53:00,47.3,44.0,29.16,South,180,2.0,0.0,89,0.00,,,0.00,Rainwise IP-100,2013-05-18 03:53:00,
2013-05-17 23:58:00,46.7,45.0,29.16,South,180,2.0,2.0,94,0.00,,,0.00,Rainwise IP-100,2013-05-18 03:58:00,